Wind_Speed
9 10 10 10 9 9 9 9 8 8 8 8 8 8 8 8 8 8 8 7 7 8 9 9 9 9 9 10 10 10 10 11 11 11 12 12 12 11 12 11 12 12 12
11 11 11 11 11 10 10 10 10 9 9 9 8 8 8 8 8 9 9 8 8 9 9 9 9 9 9 10 11 11 11 12 11 12 12 13 13 13 12 12 12 12 12
13 13 12 12 12 12 11 11 11 10 10 10 10 9 9 9 9 9 9 9 9 9 9 10 10 10 10 10 11 11 12 12 12 12 12 13 13 14 13 14 14 13 13
15 14 14 13 13 13 13 12 12 11 11 10 10 10 10 9 9 10 9 9 10 11 11 11 11 11 11 11 11 11 12 13 13 13 13 13 14 14 14 15 15 15 15
16 15 15 15 15 14 13 13 13 13 12 11 11 11 12 11 11 10 11 10 10 11 11 11 11 12 12 12 12 12 13 13 13 13 13 14 14 15 16 16 16 16 17
16 17 17 16 17 15 14 14 13 13 13 13 13 13 12 12 12 11 12 11 11 11 11 11 12 13 13 13 13 14 14 14 14 14 14 14 15 15 16 17 17 17 18
18 19 18 17 17 16 16 15 15 15 14 14 14 14 13 12 13 13 13 13 13 12 12 13 13 13 14 14 14 15 15 15 14 14 14 15 15 16 16 17 17 17 18
19 19 19 19 19 18 17 17 17 16 15 15 14 14 13 13 13 13 13 13 13 13 13 13 13 14 14 14 15 15 15 15 15 16 16 16 16 16 16 16 17 18 18
19 19 19 20 19 19 18 18 17 18 17 17 15 14 14 14 14 13 13 14 14 14 14 14 14 14 15 15 15 15 15 15 16 17 17 17 17 17 17 17 17 18 19
18 18 19 20 19 18 17 17 18 18 18 18 17 16 15 14 14 14 14 14 14 14 14 14 15 15 15 16 16 16 16 16 17 18 18 18 18 18 18 18 18 19 19
18 18 19 19 18 18 17 18 18 18 18 18 17 17 16 15 15 14 14 14 14 15 15 16 16 16 16 16 16 16 16 17 18 18 18 19 19 19 19 19 19 20 20
19 19 19 20 20 19 19 19 19 19 19 19 18 18 18 17 16 15 15 16 16 16 17 17 17 17 17 17 17 17 18 18 18 18 19 19 19 19 19 19 20 20 20
19 20 19 20 20 20 20 20 20 20 20 20 19 19 18 18 17 17 16 16 17 18 18 18 17 18 18 18 17 18 18 18 18 19 19 20 20 20 20 20 21 21 21
19 19 20 20 20 21 22 22 21 21 21 21 20 19 19 19 19 18 18 18 18 19 19 19 18 18 18 18 19 19 19 19 20 20 20 21 21 21 21 21 21 22 22
19 19 20 20 20 21 22 22 21 21 21 21 21 20 20 20 20 19 19 20 20 20 19 19 19 19 19 19 19 19 20 19 20 20 20 21 21 21 22 22 22 22 22
19 19 20 21 20 20 21 22 22 21 22 22 21 21 21 20 20 20 20 20 21 21 20 19 19 19 18 19 19 19 19 19 20 19 19 19 19 20 21 21 21 21 22
20 20 21 21 21 20 20 21 21 21 21 22 22 22 22 22 22 21 21 21 21 21 21 21 20 21 20 19 18 19 18 19 19 19 19 19 19 20 20 21 21 21 21
19 20 21 21 20 19 19 19 20 20 21 21 22 23 23 23 23 23 22 22 22 22 22 22 22 22 21 20 20 20 20 19 19 19 19 19 19 20 20 21 22 22 22
19 18 18 19 20 19 19 20 19 20 21 21 22 22 22 23 24 23 23 23 23 23 23 24 23 23 22 22 21 21 22 21 21 20 19 19 19 20 21 22 22 22 22
19 19 19 19 19 20 20 19 19 20 20 21 21 21 22 23 24 24 24 24 24 24 25 25 24 24 23 23 23 23 22 22 22 21 21 21 21 21 21 22 22 22 22
19 19 19 19 20 21 21 20 20 21 21 22 22 22 23 23 24 25 24 24 25 25 25 25 25 25 25 25 24 24 24 23 23 23 23 22 22 22 22 22 22 22 22
20 19 18 19 19 20 20 21 21 22 22 22 22 23 23 23 24 24 24 25 25 25 26 26 26 26 26 26 26 25 24 24 24 23 23 23 24 23 23 23 23 23 23
19 19 19 20 20 20 21 22 22 23 23 23 23 23 24 24 24 24 25 25 25 25 25 25 25 25 26 26 26 26 25 25 25 25 25 24 24 24 24 24 24 24 23
20 19 19 20 20 21 22 23 24 24 24 23 24 24 25 24 24 24 24 25 25 25 25 26 26 26 26 26 26 26 25 25 25 25 25 25 24 24 24 24 24 23 23
21 21 20 20 21 21 22 24 25 25 25 25 25 24 24 25 24 25 24 25 25 24 24 25 25 25 26 26 26 26 26 25 25 24 24 25 25 24 24 24 24 24 24
22 22 21 21 21 22 23 24 25 25 25 25 24 24 25 25 25 25 25 25 25 24 24 25 25 25 25 25 25 24 25 25 25 25 25 25 25 25 24 24 25 25 25
Wind_Direction
253 249 249 248 247 248 251 250 247 244 248 253 253 252 248 249 250 249 250 256 257 254 256 258 260 260 260 259 257 259 257 257 256 254 254 256 257 255 251 252 253 252 250
255 250 247 248 249 250 251 250 247 245 247 251 254 256 250 247 248 249 249 254 258 259 258 259 260 260 261 258 259 261 260 260 259 259 258 258 258 255 253 254 253 253 251
257 250 248 249 250 253 251 249 247 246 247 249 251 252 254 254 253 253 254 257 259 258 259 258 259 261 262 258 258 260 259 258 260 261 260 259 258 257 257 258 257 256 254
257 252 249 248 250 254 253 249 247 246 247 249 251 251 254 255 257 255 261 264 262 256 255 258 259 258 259 258 260 262 262 260 259 261 260 258 258 257 259 262 262 260 258
254 250 249 249 251 254 253 250 248 247 246 247 249 249 254 257 259 257 264 267 261 256 258 262 262 261 260 261 262 262 262 262 263 261 260 260 258 257 259 262 263 262 261
253 252 251 249 251 250 250 250 248 246 245 247 248 251 254 256 257 260 262 265 262 259 263 267 265 265 264 264 265 266 263 262 264 262 261 261 261 260 260 261 261 262 262
255 253 250 249 249 248 249 249 248 247 247 248 249 252 254 254 256 258 261 264 264 263 262 263 264 266 266 267 268 267 265 264 264 265 263 263 263 264 263 262 260 262 263
259 254 251 249 247 248 248 249 248 246 245 248 251 252 251 251 253 260 265 266 264 264 262 262 266 269 269 268 269 269 268 266 265 267 266 264 263 264 264 262 261 262 262
257 259 255 250 249 245 248 248 247 245 243 246 248 252 253 255 258 260 263 265 264 265 264 264 266 270 271 270 271 271 269 268 267 268 267 265 265 264 264 265 265 263 261
259 259 257 253 244 244 243 244 247 245 244 246 249 251 255 256 256 260 262 264 265 266 266 268 268 270 272 272 273 271 272 270 270 268 267 266 265 262 262 264 266 266 266
257 258 254 249 245 243 242 243 246 246 246 247 249 251 253 256 258 260 261 261 264 266 267 269 270 271 272 273 273 272 272 273 272 269 268 267 266 264 263 265 265 267 269
259 260 257 247 246 245 244 246 246 247 247 246 248 250 252 256 258 259 260 261 264 268 270 269 271 272 274 274 274 273 272 271 272 271 270 269 268 266 265 266 266 267 269
259 259 254 249 247 245 245 247 247 245 245 246 247 248 251 254 256 259 261 263 266 270 271 272 272 273 274 275 275 275 275 274 273 274 272 268 266 266 267 267 267 269 270
260 257 250 249 248 247 248 248 247 244 245 245 245 247 251 253 256 258 262 266 268 272 273 273 272 273 274 276 277 276 277 277 276 275 273 270 268 267 268 268 269 270 271
258 254 250 249 249 249 249 246 245 245 245 245 245 247 249 253 255 258 262 266 270 273 273 274 276 275 276 278 279 278 278 277 277 277 276 273 271 270 270 271 271 272 273
256 255 251 249 250 248 245 243 245 247 244 244 246 248 251 254 255 259 263 267 269 272 272 273 276 277 279 280 279 278 279 278 279 278 276 274 272 271 271 271 272 273 274
257 254 252 250 250 249 246 244 244 246 245 246 248 251 252 255 257 260 264 267 270 270 271 273 276 277 279 281 280 279 278 280 280 279 276 275 273 273 272 272 272 274 275
261 256 252 249 248 249 248 247 249 249 246 246 249 253 255 257 258 260 264 267 269 270 272 274 274 275 276 278 279 280 280 280 280 278 276 275 273 273 273 273 274 274 275
261 258 255 250 249 250 252 251 249 250 248 249 252 255 256 258 258 259 262 266 268 270 271 273 273 273 275 277 278 278 280 280 281 278 277 276 274 273 273 273 274 274 275
261 257 253 251 250 252 253 253 251 252 252 254 255 256 258 258 258 260 264 266 267 270 272 273 272 272 274 275 277 278 277 279 279 278 276 277 275 275 274 274 275 275 274
259 258 255 252 252 252 251 251 252 254 255 256 257 260 262 263 263 262 263 264 267 270 272 273 271 272 273 274 274 276 276 277 277 277 276 275 274 273 273 274 276 276 275
259 259 258 256 255 253 253 253 254 255 256 257 260 264 265 266 265 263 264 265 268 270 271 272 271 271 272 272 272 274 275 274 275 275 274 275 273 272 272 273 274 275 275
258 260 257 259 257 254 254 255 257 257 257 259 262 264 266 264 264 264 263 264 268 270 271 271 270 272 272 272 272 273 272 274 273 273 273 274 273 272 272 271 271 273 274
259 260 260 260 259 256 255 257 258 258 257 260 263 265 263 265 265 264 265 266 268 271 272 271 271 271 270 269 271 271 272 274 274 273 272 272 273 273 273 272 272 273 275
260 261 263 263 261 260 259 259 260 261 262 263 264 264 265 265 264 264 266 267 268 269 271 271 271 271 271 269 268 270 272 272 271 271 273 272 272 274 274 272 272 274 276
260 260 262 263 263 263 262 260 261 263 263 262 262 264 265 265 264 264 265 267 267 267 268 269 270 271 271 269 269 270 271 271 270 270 273 273 273 274 274 274 275 276 278
Height
5871 5871 5871 5871 5871 5872 5872 5873 5873 5874 5874 5874 5874 5875 5875 5876 5876 5876 5877 5877 5877 5877 5877 5877 5877 5877 5877 5877 5878 5878 5878 5879 5879 5879 5880 5880 5881 5881 5881 5882 5882 5882 5883
5868 5868 5869 5869 5869 5870 5870 5871 5871 5872 5872 5873 5873 5873 5874 5874 5874 5875 5875 5875 5875 5875 5875 5875 5875 5875 5875 5875 5875 5876 5876 5876 5876 5877 5877 5878 5878 5878 5879 5879 5880 5880 5880
5865 5866 5866 5867 5867 5867 5868 5868 5869 5869 5870 5870 5871 5871 5872 5872 5872 5873 5873 5873 5872 5873 5873 5873 5873 5873 5873 5873 5873 5873 5873 5873 5874 5874 5874 5875 5875 5876 5876 5876 5877 5877 5877
5862 5862 5863 5864 5865 5865 5865 5866 5866 5867 5868 5868 5868 5869 5870 5870 5870 5870 5870 5870 5870 5870 5870 5870 5871 5871 5871 5870 5870 5870 5870 5870 5870 5871 5871 5871 5872 5872 5873 5873 5873 5874 5874
5858 5859 5860 5861 5861 5862 5863 5863 5864 5864 5865 5865 5866 5866 5867 5867 5868 5868 5868 5868 5868 5868 5868 5868 5868 5868 5868 5868 5868 5867 5867 5867 5867 5867 5867 5868 5868 5869 5869 5869 5870 5870 5870
5854 5855 5856 5857 5858 5858 5859 5860 5861 5862 5862 5863 5863 5864 5864 5864 5865 5865 5865 5865 5865 5865 5865 5865 5865 5865 5865 5865 5864 5864 5864 5864 5864 5864 5864 5864 5865 5865 5865 5865 5866 5866 5867
5850 5851 5852 5853 5853 5855 5856 5857 5858 5859 5859 5860 5860 5861 5861 5861 5862 5862 5862 5862 5862 5862 5862 5862 5862 5862 5861 5861 5861 5860 5860 5860 5860 5860 5860 5860 5861 5861 5861 5861 5862 5862 5862
5845 5846 5847 5848 5849 5850 5852 5853 5854 5855 5856 5857 5857 5858 5858 5859 5859 5859 5859 5859 5859 5858 5859 5859 5858 5858 5858 5858 5857 5857 5857 5856 5856 5856 5856 5856 5857 5857 5857 5857 5857 5858 5858
5840 5841 5842 5843 5844 5846 5847 5848 5849 5851 5852 5853 5854 5855 5855 5855 5855 5856 5856 5855 5855 5855 5855 5855 5855 5855 5854 5854 5854 5853 5853 5853 5852 5852 5852 5852 5852 5853 5853 5853 5853 5853 5853
5836 5836 5837 5838 5840 5841 5842 5844 5845 5846 5847 5849 5850 5850 5851 5852 5852 5852 5852 5852 5852 5852 5852 5851 5851 5851 5850 5850 5849 5849 5849 5849 5848 5848 5848 5848 5848 5848 5848 5849 5849 5849 5849
5831 5832 5832 5834 5835 5836 5838 5839 5840 5841 5843 5844 5845 5846 5847 5847 5848 5848 5849 5849 5849 5849 5848 5848 5847 5846 5846 5845 5845 5845 5844 5844 5844 5843 5843 5843 5843 5843 5844 5844 5844 5844 5844
5827 5827 5828 5829 5830 5831 5833 5834 5835 5836 5838 5839 5840 5842 5843 5843 5844 5844 5845 5845 5845 5845 5844 5844 5843 5842 5841 5841 5840 5840 5840 5839 5839 5838 5838 5838 5838 5838 5838 5839 5839 5839 5839
5823 5823 5823 5824 5825 5826 5827 5828 5830 5831 5833 5834 5835 5837 5838 5839 5839 5840 5840 5840 5841 5840 5840 5840 5839 5838 5837 5836 5836 5835 5835 5834 5834 5833 5833 5833 5832 5833 5833 5833 5833 5833 5833
5817 5818 5818 5819 5820 5821 5822 5823 5824 5826 5827 5829 5830 5832 5833 5834 5834 5835 5835 5836 5836 5836 5835 5835 5834 5833 5832 5831 5831 5830 5829 5829 5828 5828 5827 5827 5827 5827 5827 5827 5827 5827 5827
5812 5813 5813 5814 5815 5816 5816 5817 5819 5820 5822 5824 5825 5826 5828 5829 5829 5830 5830 5830 5831 5830 5830 5830 5829 5828 5827 5826 5825 5825 5824 5823 5823 5822 5822 5821 5821 5821 5821 5820 5820 5820 5820
5807 5807 5808 5809 5810 5810 5810 5812 5813 5814 5816 5818 5820 5821 5822 5823 5824 5825 5825 5825 5825 5825 5825 5824 5824 5823 5822 5821 5820 5819 5819 5818 5817 5817 5816 5815 5815 5815 5815 5815 5814 5814 5814
5801 5802 5803 5803 5804 5805 5805 5806 5807 5809 5811 5813 5814 5815 5816 5817 5818 5819 5819 5820 5819 5819 5819 5819 5818 5818 5817 5816 5815 5814 5813 5813 5812 5811 5810 5810 5809 5809 5809 5809 5808 5808 5808
5795 5796 5797 5798 5799 5800 5800 5801 5802 5803 5805 5807 5808 5809 5810 5811 5812 5813 5814 5814 5814 5814 5814 5813 5813 5812 5811 5811 5810 5810 5808 5807 5806 5805 5805 5804 5804 5803 5803 5803 5803 5802 5802
5791 5791 5792 5792 5793 5794 5795 5796 5797 5799 5800 5801 5802 5803 5804 5805 5806 5806 5807 5807 5807 5808 5808 5807 5807 5806 5806 5805 5804 5804 5803 5802 5801 5800 5799 5799 5798 5798 5797 5797 5797 5796 5796
5786 5786 5786 5787 5788 5789 5790 5791 5792 5793 5794 5795 5796 5797 5798 5798 5799 5799 5800 5800 5801 5801 5801 5800 5800 5800 5799 5799 5798 5798 5797 5796 5795 5794 5793 5793 5792 5792 5791 5791 5790 5790 5789
5780 5780 5781 5781 5782 5783 5784 5785 5786 5787 5788 5789 5790 5791 5791 5791 5792 5792 5793 5793 5794 5794 5794 5793 5793 5793 5792 5792 5792 5791 5790 5789 5788 5788 5787 5787 5786 5785 5785 5784 5784 5783 5783
5774 5775 5775 5776 5776 5777 5778 5779 5780 5781 5782 5783 5784 5784 5784 5784 5785 5785 5785 5786 5787 5787 5786 5786 5786 5786 5785 5785 5784 5784 5783 5783 5782 5782 5781 5780 5779 5779 5778 5778 5778 5777 5776
5769 5770 5770 5770 5771 5771 5772 5773 5774 5775 5776 5776 5777 5777 5777 5777 5777 5778 5778 5778 5779 5779 5779 5778 5778 5778 5777 5777 5777 5777 5776 5775 5775 5774 5774 5773 5773 5772 5772 5771 5771 5771 5770
5763 5764 5764 5764 5764 5765 5766 5766 5767 5768 5768 5769 5769 5770 5770 5770 5770 5770 5770 5771 5771 5771 5771 5771 5771 5770 5769 5769 5769 5769 5768 5768 5768 5767 5766 5766 5766 5765 5765 5765 5764 5764 5764
5757 5757 5758 5758 5758 5758 5759 5759 5760 5760 5761 5762 5762 5762 5762 5763 5763 5763 5763 5763 5763 5763 5763 5763 5763 5763 5762 5762 5761 5761 5761 5761 5761 5760 5759 5759 5759 5758 5758 5758 5757 5757 5757
5751 5751 5751 5751 5752 5752 5752 5752 5753 5753 5754 5754 5754 5755 5755 5755 5756 5755 5755 5756 5756 5756 5755 5755 5755 5755 5755 5754 5754 5754 5753 5753 5753 5753 5753 5752 5752 5751 5751 5751 5750 5750 5749